Regional Weather Roundup
Issued by NWS

Home | Current Version | Previous Version | Text Only | Print | Product List | Glossary Off
Versions: 1 2 3 4 5 6 7 8 9 10 11 12 13 14 15 16 17 18 19 20 21 22 23 24 25 26 27 28 29 30 31 32 33 34 35 36 37 38 39 40 41 42 43 44 45 46 47 48 49 50

000
ASUS43 KLMK 270310
RWRKY
KENTUCKY REGIONAL WEATHER ROUNDUP
NATIONAL WEATHER SERVICE LOUISVILLE KY
1100 PM EDT WED JUL 26 2017

NOTE "FAIR" INDICATES FEW OR NO CLOUDS BELOW 12,000 FEET
WITH NO SIGNIFICANT WEATHER AND/OR OBSTRUCTIONS TO VISIBILITY.

KYZ001>023-026-027-061>063-070>075-270400-
WESTERN AND SOUTH CENTRAL KENTUCKY

CITY           SKY/WX    TMP DP  RH WIND       PRES   REMARKS
PADUCAH        CLOUDY    84  73  69 S6        30.00S HX  90
HENDERSON      CLOUDY    76  74  93 SE3       30.00F
OWENSBORO      CLEAR    N/A N/A N/A VRB5      30.01F
HOPKINSVILLE   CLOUDY    83  77  81 S5        30.02F HX  93
BOWLING GREEN  MOCLDY    83  76  79 N6        30.04R HX  91
GLASGOW        NOT AVBL
$$

KYZ024-025-028>034-038-045-046-053-270400-
NORTH CENTRAL KENTUCKY

CITY           SKY/WX    TMP DP  RH WIND       PRES   REMARKS
LOUISVILLE/SDF CLOUDY    83  72  69 SW8       30.01S
LOUISVILLE/LOU CLOUDY    84  74  71 SW8       30.03R HX  91
FORT KNOX      CLOUDY    77  75  94 CALM      30.02F
$$

KYZ035>037-039>044-047>052-055>060-089>105-270400-
NORTHEAST KENTUCKY

CITY           SKY/WX    TMP DP  RH WIND       PRES   REMARKS
LEXINGTON      CLOUDY    81  69  67 S3        30.06R
COVINGTON      CLOUDY    78  71  79 VRB3      30.04R
FRANKFORT      CLOUDY    81  71  71 E3        30.03R
$$

KYZ054-064>069-076>088-106>120-270400-
SOUTHEAST KENTUCKY

CITY           SKY/WX    TMP DP  RH WIND       PRES   REMARKS
JACKSON        PTCLDY    78  68  71 SE3       30.09S
LONDON         PTCLDY    77  70  79 CALM      30.07F
SOMERSET       CLOUDY    75  70  83 CALM      30.07S
MIDDLESBORO    CLEAR     75  71  88 CALM      30.09F
MONTICELLO     PTCLDY    73  72  96 CALM      30.08R
$$





USA.gov is the U.S. government's official web portal to all federal, state and local government web resources and services.